TimeCST,TemperatureF,Dew PointF,Humidity,Sea Level PressureIn,VisibilityMPH,Wind Direction,Wind SpeedMPH,Gust SpeedMPH,PrecipitationIn,Events,Conditions,WindDirDegrees,DateUTC
12:00 AM,68.0,62.6,83,30.02,-9999.0,ESE,8.1,-,N/A,,Clear,110,2011-11-23 06:00:00
1:00 AM,68.0,60.8,78,29.99,-9999.0,ESE,6.9,-,N/A,,Clear,120,2011-11-23 07:00:00
2:00 AM,68.0,60.8,78,29.98,-9999.0,East,6.9,-,N/A,,Clear,100,2011-11-23 08:00:00
3:00 AM,68.0,60.8,78,29.97,-9999.0,East,5.8,-,N/A,,Clear,80,2011-11-23 09:00:00
4:00 AM,68.0,60.8,78,29.98,-9999.0,NE,5.8,-,N/A,,Clear,40,2011-11-23 10:00:00
5:00 AM,68.0,60.8,78,29.99,-9999.0,East,3.5,-,N/A,,Clear,80,2011-11-23 11:00:00
6:00 AM,68.0,60.8,78,30.01,6.2,ENE,5.8,-,N/A,,Partly Cloudy,70,2011-11-23 12:00:00
7:00 AM,71.6,62.6,73,30.03,6.2,NNE,5.8,-,N/A,,Partly Cloudy,20,2011-11-23 13:00:00
8:00 AM,75.2,62.6,65,30.04,6.2,ESE,9.2,-,N/A,,Partly Cloudy,110,2011-11-23 14:00:00
9:00 AM,78.8,62.6,57,30.05,6.2,ESE,8.1,-,N/A,,Scattered Clouds,120,2011-11-23 15:00:00
10:00 AM,78.8,62.6,57,30.04,6.2,East,9.2,-,N/A,,Mostly Cloudy,90,2011-11-23 16:00:00
11:00 AM,78.8,62.6,57,30.02,6.2,ESE,11.5,-,N/A,,Mostly Cloudy,110,2011-11-23 17:00:00
12:00 PM,79,62,47,29.86,12,SE,5.8,,,,Mostly Cloudy,140,2011-11-23 18:00:00
12:00 PM,78.8,62.6,57,29.99,6.2,SE,5.8,-,N/A,,Mostly Cloudy,140,2011-11-23 18:00:00
12:10 PM,77.0,66.2,69,29.98,6.2,SW,8.1,-,N/A,,Mostly Cloudy,220,2011-11-23 18:10:00
1:00 PM,75.2,68.0,78,29.97,5.0,WSW,8.1,-,N/A,Rain,Light Rain Showers,240,2011-11-23 19:00:00
2:00 PM,73.4,69.8,88,29.95,6.2,WSW,9.2,-,N/A,Rain,Rain Showers,250,2011-11-23 20:00:00
3:00 PM,69,66,89,29.86,2,WNW,3.5,,,Rain,Light Rain,290,2011-11-23 21:00:00
3:00 PM,68.0,66.2,94,29.96,1.9,North,-9999.0,-,N/A,Rain,Rain,0,2011-11-23 21:00:00
4:00 PM,69.8,66.2,88,29.95,6.2,WSW,3.5,-,N/A,,Mostly Cloudy,250,2011-11-23 22:00:00
5:00 PM,69.8,66.2,88,29.96,6.2,SSW,3.5,-,N/A,,Mostly Cloudy,200,2011-11-23 23:00:00
6:00 PM,68,64,81,29.89,12,East,4.6,,,,Scattered Clouds,90,2011-11-24 00:00:00
6:00 PM,68.0,64.4,88,30.00,6.2,East,4.6,-,N/A,,Scattered Clouds,90,2011-11-24 00:00:00
7:00 PM,69.8,62.6,78,30.02,6.2,NNE,3.5,-,N/A,,Mostly Cloudy,20,2011-11-24 01:00:00
8:00 PM,69.8,64.4,83,30.03,6.2,WNW,3.5,-,N/A,,Mostly Cloudy,295,2011-11-24 02:00:00
9:00 PM,68,65,85,29.92,12,East,3.5,,,,Scattered Clouds,100,2011-11-24 03:00:00
9:00 PM,68.0,64.4,88,30.06,6.2,ESE,3.5,-,N/A,,Scattered Clouds,110,2011-11-24 03:00:00
10:00 PM,68.0,62.6,83,30.06,6.2,NNE,6.9,-,N/A,,Scattered Clouds,30,2011-11-24 04:00:00
11:00 PM,68.0,62.6,83,30.04,6.2,ESE,9.2,-,N/A,,Scattered Clouds,110,2011-11-24 05:00:00